GW5913 Weather Reports


Display with metric or nautical units.
time (UTC)temp
F
wind
direction
speed
MPH
gust
MPH
rain 1hr
in
rain 24hr
in
rain mn
in
humidity
%
barometer
mb
20260505153100 70 191 12.0 12.0 0.00 0.09 0.09 86 1009.1
20260505152557 70 180 6.0 14.0 0.00 0.09 0.09 86 1009.1
20260505152053 69 174 15.0 17.0 0.00 0.09 0.09 86 1009.2
20260505151548 68 182 10.0 15.0 0.00 0.09 0.09 87 1009.1
20260505151046 68 178 12.0 17.0 0.00 0.09 0.09 87 1009.0
20260505150542 68 161 3.0 10.0 0.00 0.09 0.09 88 1009.2
20260505140507 66 190 4.0 6.0 0.00 0.09 0.09 90 1009.9
20260505124920 62 175 2.0 5.0 0.00 0.09 0.09 95 1010.2
20260505124417 62 88 4.0 11.0 0.00 0.09 0.09 95 1010.2
20260505123913 62 93 7.0 12.0 0.00 0.09 0.09 95 1010.1
20260505123410 61 118 3.0 9.0 0.00 0.09 0.09 95 1010.3
20260505122906 61 64 5.0 13.0 0.00 0.09 0.09 95 1010.3
20260505122404 61 113 7.0 12.0 0.00 0.09 0.09 95 1010.0
20260505121900 61 104 9.0 11.0 0.00 0.09 0.09 96 1010.2
20260505121357 61 126 9.0 14.0 0.00 0.09 0.09 96 1010.1
20260505120853 61 81 10.0 14.0 0.00 0.09 0.09 96 1010.2
20260505120349 61 89 14.0 15.0 0.00 0.09 0.09 95 1010.1
20260505115848 61 102 9.0 12.0 0.00 0.09 0.09 95 1009.9
20260505115345 61 100 6.0 18.0 0.00 0.09 0.09 95 1010.0
20260505114843 61 112 9.0 13.0 0.00 0.09 0.09 96 1010.2
20260505114339 61 97 6.0 12.0 0.00 0.09 0.09 96 1009.8
20260505113836 61 96 7.0 14.0 0.00 0.09 0.09 96 1010.1
20260505113333 61 64 6.0 12.0 0.00 0.09 0.09 97 1010.1
20260505112828 61 89 6.0 12.0 0.00 0.09 0.09 96 1010.2
20260505112326 61 51 2.0 4.0 0.00 0.09 0.09 96 1010.1
20260505111821 61 76 5.0 9.0 0.00 0.09 0.09 97 1010.4
20260505111317 61 36 3.0 5.0 0.00 0.09 0.09 97 1010.0
20260505110813 61 81 3.0 8.0 0.00 0.09 0.09 97 1010.0
20260505110311 61 61 7.0 12.0 0.00 0.09 0.09 98 1010.0
20260505101745 61 84 4.0 9.0 0.00 0.09 0.09 98 1010.0
20260505101241 61 54 2.0 9.0 0.00 0.09 0.09 98 1010.1
20260505100737 61 65 4.0 10.0 0.02 0.09 0.09 98 1010.1
20260505100234 61 69 3.0 6.0 0.02 0.09 0.09 98 1010.1
20260505095729 61 28 2.0 8.0 0.00 0.09 0.09 98 1010.4
20260505095228 61 57 5.0 9.0 0.00 0.09 0.09 98 1010.5
20260505094723 61 69 6.0 11.0 0.00 0.09 0.09 98 1010.3
20260505094220 61 111 3.0 11.0 0.00 0.09 0.09 98 1010.5
20260505093716 61 72 5.0 6.0 0.00 0.09 0.09 98 1010.4
20260505093214 61 95 1.0 4.0 0.00 0.09 0.09 99 1010.3
20260505092710 61 34 3.0 7.0 0.00 0.09 0.09 99 1010.3
20260505092209 61 11 0.0 4.0 0.00 0.09 0.09 99 1010.4
20260505091706 61 48 3.0 4.0 0.00 0.09 0.09 99 1010.4
20260505091204 61 17 1.0 4.0 0.00 0.09 0.09 99 1010.4
20260505090701 61 81 0.0 3.0 0.02 0.09 0.09 99 1010.6
20260505090159 61 4 2.0 4.0 0.02 0.09 0.09 98 1010.3
20260505085656 61 322 1.0 3.0 0.02 0.08 0.08 98 1010.1
20260505085154 61 44 2.0 4.0 0.02 0.08 0.08 98 1010.1
20260505084651 61 57 2.0 6.0 0.00 0.08 0.08 98 1010.3
20260505084150 61 43 2.0 5.0 0.00 0.08 0.08 97 1010.4
20260505083647 61 8 2.0 5.0 0.00 0.08 0.08 97 1010.7
20260505083143 61 344 3.0 7.0 0.09 0.08 0.08 97 1010.7
20260505082639 62 350 4.0 6.0 0.21 0.08 0.08 95 1010.5
20260505082137 62 60 4.0 7.0 0.17 0.06 0.06 94 1010.2
20260505081632 63 349 4.0 17.0 0.00 0.04 0.04 91 1010.9
20260505081130 64 327 6.0 12.0 0.00 0.04 0.04 89 1011.1
20260505080627 64 301 0.0 8.0 0.00 0.04 0.04 88 1009.8
20260505080123 63 28 4.0 7.0 0.00 0.04 0.04 88 1009.6
20260505075619 63 343 4.0 14.0 0.00 0.04 0.04 89 1009.5
20260505075116 65 355 5.0 18.0 0.00 0.04 0.04 85 1009.8
20260505074613 65 335 4.0 5.0 0.00 0.04 0.04 84 1008.4
20260505074110 65 173 4.0 10.0 0.00 0.04 0.04 83 1008.0
20260505073608 64 191 2.0 8.0 0.00 0.04 0.04 85 1007.7
20260505073106 64 135 7.0 14.0 0.00 0.04 0.04 85 1007.2
20260505072601 64 113 11.0 16.0 0.00 0.04 0.04 84 1007.9
20260505072058 65 97 13.0 13.0 0.00 0.04 0.04 81 1008.2
20260505071553 65 125 10.0 13.0 0.00 0.04 0.04 82 1008.2
20260505071051 65 166 8.0 18.0 0.00 0.04 0.04 81 1008.7
20260505070548 64 97 12.0 16.0 0.00 0.04 0.04 84 1009.0
20260505070044 65 173 5.0 6.0 0.02 0.04 0.04 83 1010.0
20260505065540 65 316 2.0 4.0 0.02 0.04 0.04 82 1010.7
20260505065037 65 345 3.0 5.0 0.00 0.03 0.03 82 1010.5
20260505064534 66 291 1.0 2.0 0.00 0.03 0.03 79 1010.2
20260505064033 66 226 1.0 6.0 0.00 0.03 0.03 78 1009.7
20260505063529 66 181 10.0 14.0 0.00 0.03 0.03 77 1009.6
20260505063025 64 168 5.0 11.0 0.14 0.03 0.03 82 1009.6
20260505062522 65 133 4.0 8.0 0.14 0.03 0.03 81 1009.6
20260505062020 66 142 4.0 9.0 0.05 0.01 0.01 76 1010.1
20260505061517 67 206 5.0 11.0 0.05 0.01 0.01 75 1010.4
20260505061015 69 198 15.0 17.0 0.00 0.00 0.00 70 1010.0
20260505060512 69 185 6.0 12.0 0.00 0.00 0.00 68 1010.6
20260505060008 69 181 5.0 11.0 0.00 0.00 0.00 68 1010.0
20260505055504 69 161 4.0 8.0 0.00 0.00 0.00 68 1010.4
20260505055001 68 14 2.0 5.0 0.00 0.00 0.00 68 1010.5
20260505054458 68 179 7.0 13.0 0.00 0.00 0.00 69 1010.5
20260505053956 68 181 6.0 11.0 0.00 0.00 0.00 71 1010.5
20260505053453 68 167 9.0 13.0 0.00 0.00 0.00 70 1010.5
20260505052949 68 188 9.0 10.0 0.00 0.00 0.00 69 1010.5
20260505052447 68 174 7.0 9.0 0.00 0.00 0.00 69 1010.4
20260505051944 68 157 9.0 11.0 0.00 0.00 0.00 70 1010.4
20260505051440 68 195 6.0 14.0 0.00 0.00 0.00 70 1010.4
20260505050939 67 165 9.0 13.0 0.00 0.00 0.00 70 1010.5
20260505050437 67 156 9.0 12.0 0.00 0.00 0.00 71 1010.5
20260505041405 66 224 4.0 7.0 0.00 0.00 0.00 73 1011.5
20260505040901 66 258 2.0 4.0 0.00 0.00 0.00 74 1011.3
20260505040359 66 195 2.0 4.0 0.00 0.00 0.00 74 1011.3
20260505035855 66 215 3.0 4.0 0.00 0.00 0.00 73 1011.2
20260505035351 66 203 3.0 5.0 0.00 0.00 0.00 73 1011.5
20260505034849 66 215 3.0 7.0 0.00 0.00 0.00 73 1011.5
20260505034345 67 206 4.0 7.0 0.00 0.00 0.00 73 1011.4
20260505033842 67 184 5.0 7.0 0.00 0.00 0.00 72 1011.5
20260505033339 66 180 4.0 5.0 0.00 0.00 0.00 73 1011.5
20260505032837 67 180 3.0 5.0 0.00 0.00 0.00 72 1011.6
20260505032334 67 180 3.0 4.0 0.00 0.00 0.00 72 1011.7
20260505031831 67 157 2.0 4.0 0.00 0.00 0.00 73 1011.7
20260505031327 67 182 3.0 5.0 0.00 0.00 0.00 73 1011.7
20260505030825 67 145 3.0 5.0 0.00 0.00 0.00 72 1011.7
20260505030321 67 174 5.0 5.0 0.00 0.00 0.00 72 1011.9
20260505025816 67 183 3.0 4.0 0.00 0.00 0.00 72 1011.9
20260505025314 68 156 3.0 4.0 0.00 0.00 0.00 71 1011.9
20260505024812 68 174 3.0 5.0 0.00 0.00 0.00 72 1011.9
20260505024310 68 190 4.0 5.0 0.00 0.00 0.00 71 1011.7
20260505023807 68 193 3.0 5.0 0.00 0.00 0.00 71 1011.7
20260505023303 68 176 3.0 9.0 0.00 0.00 0.00 71 1011.6
20260505022801 68 184 4.0 7.0 0.00 0.00 0.00 71 1011.7
20260505022258 68 206 4.0 10.0 0.00 0.00 0.00 70 1011.5
20260505021755 68 186 4.0 7.0 0.00 0.00 0.00 71 1011.3
20260505021251 68 186 5.0 7.0 0.00 0.00 0.00 70 1011.2
20260505020747 68 197 3.0 8.0 0.00 0.00 0.00 70 1011.2
20260505020242 68 184 5.0 7.0 0.00 0.00 0.00 70 1011.1
20260505015740 68 190 4.0 7.0 0.00 0.00 0.00 70 1011.3
20260505015237 69 197 4.0 9.0 0.00 0.00 0.00 69 1011.3
20260505014734 69 189 4.0 5.0 0.00 0.00 0.00 69 1011.2
20260505014231 69 225 2.0 5.0 0.00 0.00 0.00 68 1011.4
20260505013728 69 199 3.0 6.0 0.00 0.00 0.00 68 1011.0
20260505013225 69 191 6.0 8.0 0.00 0.00 0.00 67 1011.0
20260505012723 69 189 3.0 7.0 0.00 0.00 0.00 68 1010.9
20260505012220 69 211 5.0 9.0 0.00 0.00 0.00 67 1010.6
20260505011716 70 190 6.0 10.0 0.00 0.00 0.00 67 1010.7
20260505011213 70 208 2.0 9.0 0.00 0.00 0.00 67 1010.5
20260505010708 70 189 9.0 9.0 0.00 0.00 0.00 66 1010.6
20260505010205 70 193 5.0 11.0 0.00 0.00 0.00 66 1010.6
20260505005701 70 174 5.0 8.0 0.00 0.00 0.00 66 1010.4
20260505005159 70 185 2.0 6.0 0.00 0.00 0.00 66 1010.7
20260505004656 70 172 3.0 5.0 0.00 0.00 0.00 66 1010.4
20260505004152 71 173 4.0 7.0 0.00 0.00 0.00 64 1010.4
20260505003649 71 180 7.0 8.0 0.00 0.00 0.00 63 1010.4
20260505003147 71 175 3.0 7.0 0.00 0.00 0.00 63 1010.6
20260505002643 72 174 5.0 8.0 0.00 0.00 0.00 62 1010.4
20260505002141 72 185 7.0 12.0 0.00 0.00 0.00 62 1010.3
20260505001638 72 180 6.0 12.0 0.00 0.00 0.00 61 1010.3
20260505001136 72 204 16.0 16.0 0.00 0.00 0.00 61 1010.5
20260505000632 72 191 4.0 11.0 0.00 0.00 0.00 61 1010.6
20260505000131 73 180 9.0 14.0 0.00 0.00 0.00 59 1010.6
20260504235626 73 177 5.0 16.0 0.00 0.00 0.00 60 1010.6
20260504235123 73 177 9.0 11.0 0.00 0.00 0.00 60 1010.6
20260504234620 73 160 7.0 17.0 0.00 0.00 0.00 60 1010.4
20260504234118 73 171 5.0 9.0 0.00 0.00 0.00 60 1010.6
20260504233613 73 192 13.0 17.0 0.00 0.00 0.00 59 1010.8
20260504233109 73 171 7.0 23.0 0.00 0.00 0.00 59 1010.5
20260504232607 73 194 6.0 12.0 0.00 0.00 0.00 58 1010.5
20260504232104 74 188 7.0 18.0 0.00 0.00 0.00 57 1010.7
20260504231600 74 191 16.0 16.0 0.00 0.00 0.00 56 1010.8
20260504231056 74 205 7.0 20.0 0.00 0.00 0.00 57 1010.5
20260504230553 74 199 10.0 21.0 0.00 0.00 0.00 56 1010.5
20260504230052 75 174 15.0 19.0 0.00 0.00 0.00 56 1010.7
20260504225549 75 164 16.0 21.0 0.00 0.00 0.00 56 1010.8
20260504225046 75 173 13.0 23.0 0.00 0.00 0.00 56 1010.6
20260504224543 75 210 14.0 23.0 0.00 0.00 0.00 55 1010.4
20260504224040 76 187 8.0 17.0 0.00 0.00 0.00 55 1010.5
20260504223537 75 182 16.0 24.0 0.00 0.00 0.00 55 1010.4
20260504223032 76 200 13.0 20.0 0.00 0.00 0.00 54 1010.5
20260504222529 76 204 9.0 25.0 0.00 0.00 0.00 53 1010.5
20260504222027 76 198 10.0 23.0 0.00 0.00 0.00 53 1010.5
20260504221524 76 208 16.0 22.0 0.00 0.00 0.00 53 1010.5
20260504221021 76 197 14.0 25.0 0.00 0.00 0.00 53 1010.5
20260504220517 76 199 16.0 27.0 0.00 0.00 0.00 52 1010.5
20260504220014 76 195 22.0 22.0 0.00 0.00 0.00 54 1010.4
20260504215510 76 172 10.0 25.0 0.00 0.00 0.00 53 1010.5
20260504215008 77 185 13.0 21.0 0.00 0.00 0.00 53 1010.7
20260504214504 77 176 11.0 19.0 0.00 0.00 0.00 52 1010.9
20260504214000 77 171 12.0 19.0 0.00 0.00 0.00 53 1011.0
20260504213456 77 161 14.0 21.0 0.00 0.00 0.00 54 1010.8
20260504212954 77 165 11.0 17.0 0.00 0.00 0.00 54 1010.8
20260504212450 77 174 20.0 22.0 0.00 0.00 0.00 53 1011.0
20260504211948 76 164 15.0 22.0 0.00 0.00 0.00 54 1011.2
20260504211444 76 188 12.0 26.0 0.00 0.00 0.00 53 1011.1
20260504210942 77 201 16.0 26.0 0.00 0.00 0.00 52 1011.2
20260504210438 77 189 14.0 24.0 0.00 0.00 0.00 52 1011.4
20260504205935 76 180 13.0 23.0 0.00 0.00 0.00 54 1011.2
20260504205433 77 184 17.0 24.0 0.00 0.00 0.00 53 1011.5
20260504204931 77 190 9.0 18.0 0.00 0.00 0.00 52 1011.7
20260504204429 76 203 16.0 25.0 0.00 0.00 0.00 51 1011.4
20260504203928 77 208 16.0 25.0 0.00 0.00 0.00 51 1011.7
20260504203425 77 209 12.0 22.0 0.00 0.00 0.00 52 1011.9
20260504202921 77 197 14.0 19.0 0.00 0.00 0.00 52 1011.7
20260504202418 77 192 19.0 23.0 0.00 0.00 0.00 51 1012.0
20260504201914 77 214 14.0 22.0 0.00 0.00 0.00 51 1012.2
20260504201412 77 193 13.0 19.0 0.00 0.00 0.00 51 1012.3
20260504200909 77 246 28.0 32.0 0.00 0.00 0.00 51 1012.1
20260504200406 76 206 9.0 20.0 0.00 0.00 0.00 52 1012.3
20260504195903 77 173 10.0 23.0 0.00 0.00 0.00 51 1012.3
20260504195358 76 186 24.0 28.0 0.00 0.00 0.00 52 1012.3
20260504194855 77 178 22.0 27.0 0.00 0.00 0.00 51 1012.6
20260504194351 77 193 8.0 25.0 0.00 0.00 0.00 51 1012.6
20260504193847 76 186 15.0 30.0 0.00 0.00 0.00 51 1012.6
20260504193344 76 205 11.0 20.0 0.00 0.00 0.00 51 1012.7
20260504192843 77 194 11.0 23.0 0.00 0.00 0.00 51 1012.7
20260504192340 77 210 18.0 27.0 0.00 0.00 0.00 51 1012.8
20260504191838 76 198 12.0 22.0 0.00 0.00 0.00 52 1012.9
20260504191336 76 215 17.0 27.0 0.00 0.00 0.00 52 1013.2
20260504190831 76 188 15.0 21.0 0.00 0.00 0.00 53 1013.1
20260504190327 76 176 13.0 23.0 0.00 0.00 0.00 53 1012.9
20260504185824 75 191 12.0 25.0 0.00 0.00 0.00 53 1013.1
20260504185321 75 187 8.0 22.0 0.00 0.00 0.00 55 1013.0
20260504184817 75 197 13.0 27.0 0.00 0.00 0.00 56 1013.0
20260504184313 75 192 15.0 24.0 0.00 0.00 0.00 54 1013.2
20260504183809 74 194 16.0 31.0 0.00 0.00 0.00 55 1013.4
20260504183306 76 180 18.0 20.0 0.00 0.00 0.00 56 1013.3
20260504182804 76 197 14.0 20.0 0.00 0.00 0.00 53 1013.4
20260504182301 76 195 10.0 36.0 0.00 0.00 0.00 52 1013.5
20260504181759 76 186 15.0 25.0 0.00 0.00 0.00 52 1013.5
20260504181256 75 235 14.0 20.0 0.00 0.00 0.00 54 1013.5
20260504180755 76 192 15.0 24.0 0.00 0.00 0.00 53 1013.7
20260504180253 76 193 13.0 21.0 0.00 0.00 0.00 54 1013.8
20260504175750 76 201 23.0 25.0 0.00 0.00 0.00 54 1013.8
20260504175247 75 195 18.0 22.0 0.00 0.00 0.00 55 1014.0
20260504174745 75 195 13.0 20.0 0.00 0.00 0.00 55 1014.0
20260504174243 75 194 14.0 16.0 0.00 0.00 0.00 57 1014.0
20260504173739 74 172 11.0 19.0 0.00 0.00 0.00 58 1013.9
20260504173236 75 180 15.0 18.0 0.00 0.00 0.00 57 1014.1
20260504172733 73 180 15.0 21.0 0.00 0.00 0.00 57 1014.1
20260504172229 74 185 17.0 22.0 0.00 0.00 0.00 55 1014.1
20260504171725 74 179 10.0 18.0 0.00 0.00 0.00 57 1014.1
20260504171223 72 173 15.0 25.0 0.00 0.00 0.00 58 1014.0
20260504170719 73 193 16.0 23.0 0.00 0.00 0.00 58 1014.2
20260504170217 73 195 18.0 28.0 0.00 0.00 0.00 57 1014.2
20260504160135 70 198 14.0 25.0 0.00 0.00 0.00 58 1014.8